Overview Statistics Trail Chart Weather Telemetry Raw packets
 

This is the latest recevied weather packets stored in our database for station/object SR4DIG-13. If no packets are shown the sender has not sent any weather packets the latest 10 day(s).

<< 82 83 84 85 86 87 88 >>
Time Temp. Humidity Pressure Rain* Wind** Luminosity Snow
1788005155 15° C 83% 1012.5 hPa 0 mm - - -
1788004854 15° C 83% 1012.7 hPa 0 mm - - -
1788004553 15° C 82% 1012.6 hPa 0 mm - - -
1788004252 15° C 82% 1012.6 hPa 0 mm - - -
1788003951 15° C 81% 1012.6 hPa 0 mm - - -
1788003650 15° C 80% 1012.7 hPa 0 mm - - -
1788003350 15.56° C 80% 1012.7 hPa 0 mm - - -
1788003049 15.56° C 79% 1012.6 hPa 0 mm - - -
1788002748 15.56° C 77% 1012.6 hPa 0 mm - - -
1788002447 16.11° C 75% 1012.5 hPa 0 mm - - -
1788002145 16.67° C 72% 1012.5 hPa 0 mm - - -
1788001845 17.78° C 69% 1012.6 hPa 0 mm - - -
1788001544 18.33° C 67% 1012.6 hPa 0 mm - - -
1788001243 19.44° C 63% 1012.5 hPa 0 mm - - -
1788000942 19.44° C 61% 1012.3 hPa 0 mm - - -
1788000641 20.56° C 58% 1012.4 hPa 0 mm - - -
1788000340 21.11° C 57% 1012.2 hPa 0 mm - - -
1788000039 21.11° C 55% 1012.1 hPa 0 mm - - -
1787999739 21.67° C 54% 1012 hPa 0 mm - - -
1787999112 22.22° C 53% 1011.9 hPa 0 mm - - -
1787998811 22.22° C 52% 1011.9 hPa 0 mm - - -
1787998510 22.78° C 51% 1011.9 hPa 0 mm - - -
1787998219 22.78° C 51% 1011.9 hPa 0 mm - - -
1787997908 22.78° C 51% 1011.9 hPa 0 mm - - -
1787997607 22.78° C 50% 1011.8 hPa 0 mm - - -

* Rain latest hour (hover to see other rain measurements)
** Current wind speed in m/s (hover to see current wind gust speed)